FLOCK 4BE-10

Last updated on Mon Sep 16 2024 00:02:03 GMT+0000 (Coordinated Universal Time)

1 60503U 24149AM 24259.09376188 .00016787 00000+0 81002-3 0 9990 2 60503 97.4435 334.2203 0004493 41.9838 318.1740 15.18744287 4441
UTC large
Height (km)
Speed (km/s)
/
Latitude / Longitude
Inclination (degrees)
Orbital Period (minutes)
Azimuth
Elevation
Range (km)
Doppler Factor

Next 0 passes for location: London (51.5072 / 0.1276)

Sorry there are no passes over London.